SL-12 DEB, 41641

Orbit data source: Space-Track

SL-12 DEB, 41641 is space debris in HEO originally from a launch on Thu, 25 Dec 2008 UTC launched from the Tyuratam Missile And Space Complex (TTMTR). Debris objects in space refer to the collection of defunct objects orbiting the Earth. Examples of debris include non-operational satellites, rocket bodies, and fragments generated from explosions, collisions, or faulty payload assembly.

Loading next visibility...
Identifier
41641, 2008-067M
Orbit
HEO
Country
Flag of CISCIS
Related business
Manufacturer
RKKE
Mission
Spacecraft
Bus & Motor
Unknown
Mass
Unknown
Launch date (UTC)
2008-12-25 (17 years ago)
Launch vehicle
Unknown
Launch site
Tyuratam Missile And Space Complex (TTMTR)
Object type
Payload
Rocket body
Debris
Shape & HBR
Unknown shape, 0.6 m
Radar Cross Section
Medium (>0.1 m² and <1 m²)

Expand to show TLE details & history
Last TLE update: 4 days ago

TLE from 4 days ago
0 SL-12 DEB
1 41641U 08067M   25307.23301576 -.00000097  00000-0 -10604-2 0  9992
2 41641  65.0623 214.7414 5577625 295.8491  17.7852  4.29356971145239
Epoch: 2025-11-03T05:35Z
TLE epoch observation values (Epoch: 2025-11-03T05:35:32.561Z)
Latitude
-0.00001°
Longitude
88.09846°
Altitude
2,491.633 km
Speed
8.06 km/s
True Right ascension
14h 18m 53s
True Declination
0° 00' 00"
Sunlit
Object was in daylight at epoch
Visualization orbit readout
Latitude
Unknown
Longitude
Unknown
Altitude
Unknown
Speed
Unknown
Apparent Right ascension
Unknown
Apparent Declination
Unknown
Sunlit
N/A
Visualization observer readout
Local Sidereal Time
06:06:18
Azimuth
Unknown
Elevation
Unknown
Doppler factor
Unknown
Orbital elements
Apogee altitude
18,529.191 km
Perigee altitude
692.873 km
Semi-major axis
15,989.169 km
Eccentricity
0.55776
Inclination
65.0623°
RAAN
214.7414°
Arg. of periapsis
295.8491°
True anomaly
64.30329°
Mean anomaly
17.7852°
Eccentric anomaly
37.03185°
Mean motion
1.07351 °/min
Orbital period
335.35 mins
BSTAR
-0.0010604
Loading maneuver chart data...
Computing Atmospheric mass density...
Loading historical data...
Loading historical data...
Loading historical data...
Loading historical data...
Loading historical data...
Loading historical data...
Loading historical data...

Documentation

Showing up to 5 results
|